Powrót do katalogu

VSP ROSE

AktywnyKrótkofalarstwoSSO
NORAD 59124·PAYLOAD·🇧🇪 Belgium

Wystrzelony Mar 4, 2024 z Vandenberg Space Force Base

Loading…

Następne Przeloty (najbliższe 24 godziny)

TLE

ŚwieżeSource: Space-Track

Epoka: Sep 14, 2026, 13:27 UTC

1 59124U 24043AC  26257.56074498  .00003477  00000-0  12425-3 0  9997
2 59124  97.5745  35.4615 0008801 294.4687  65.5634 15.29501718140644

Śledź VSP ROSE w czasie rzeczywistym z AllMySat

Download on the App Store